User: anonymous   Login
Location: Caltech
(34.1382°N, 118.1253°W)
Time: 11:17:36
(UTC-08:00)
Language:

Cosmos 1484 Rocket - Orbit

View from above orbital plane
View from above orbital plane
View from above satellite
View from above satellite

Ground track
Ground track

The orbit data is extracted from the following two-line orbital elements,

1 14208U 83075B   17016.91186627 +.00000355 +00000-0 +25190-4 0  9997
2 14208 097.3451 033.6695 0038040 294.0888 065.6365 15.10235634824377
Epoch (UTC): 16 January 2017 21:53:05
Eccentricity: 0.0038040
inclination: 97.3451°
perigee height: 509 km
apogee height: 562 km
right ascension of ascending node: 33.6695°
argument of perigee: 294.0888°
revolutions per day: 15.10235634
mean anomaly at epoch: 65.6365°
orbit number at epoch: 82437

The dashed part of the orbit path shows where the satellite is in the earth's shadow,  

DLR